THOR ABLESTAR DEB, 134

Orbit data source: Space-Track

THOR ABLESTAR DEB, 134 is space debris in LEO originally from a launch on Thu, 29 Jun 1961 UTC launched from the Air Force Eastern Test Range (AFETR). Debris objects in space refer to the collection of defunct objects orbiting the Earth. Examples of debris include non-operational satellites, rocket bodies, and fragments generated from explosions, collisions, or faulty payload assembly.

Loading next visibility...
Identifier
134, 1961-015U
Orbit
LEO
Country
Flag of USUS
Related business
Manufacturer
Unknown
Mission
Spacecraft
Bus & Motor
Unknown
Mass
Unknown
Launch date (UTC)
1961-06-29 (65 years ago)
Launch vehicle
Unknown
Launch site
Air Force Eastern Test Range (AFETR)
Object type
Payload
Rocket body
Debris
Shape & HBR
Unknown shape, 1.1 m
Radar Cross Section
Large (>1 m²)

Expand to show TLE details & history
Last TLE update: 11 hours ago

TLE from 11 hours ago
0 THOR ABLESTAR DEB
1   134U 61015U   26035.48301304  .00000155  00000-0  15903-3 0  9992
2   134  66.8811  13.5007 0087971 286.2523  72.8896 13.97719150287152
Epoch: 2026-02-04T11:35Z
TLE epoch observation values (Epoch: 2026-02-04T11:35:32.326Z)
Latitude
-0°
Longitude
64.96706°
Altitude
885.466 km
Speed
7.419 km/s
True Right ascension
00h 54m 00s
True Declination
0° 00' 00"
Sunlit
Object was in daylight at epoch
Visualization orbit readout
Latitude
Unknown
Longitude
Unknown
Altitude
Unknown
Speed
Unknown
Apparent Right ascension
Unknown
Apparent Declination
Unknown
Sunlit
N/A
Visualization observer readout
Local Sidereal Time
00:59:04
Azimuth
Unknown
Elevation
Unknown
Doppler factor
Unknown
Orbital elements
Apogee altitude
964.11 km
Perigee altitude
836.056 km
Semi-major axis
7,278.22 km
Eccentricity
0.0088
Inclination
66.8811°
RAAN
13.5007°
Arg. of periapsis
286.2523°
True anomaly
73.85614°
Mean anomaly
72.8896°
Eccentric anomaly
73.37256°
Mean motion
3.49547 °/min
Orbital period
102.99 mins
BSTAR
0.00015903
Loading maneuver chart data...
Computing Atmospheric mass density...

Documentation

Showing up to 5 results
|